Location: São Paulo
(23.5507°S, 46.6334°W)
Time: 06:44:34
(UTC-03:00)

Explorer 7 - Pass Details

Date: 17 February 2026
Orbit: 430 x 541 km, 50.2° (Epoch: 10 March)

Event Time Altitude Azimuth Distance (km) Brightness Sun altitude
Rises 01:52:46 0° 315° (NW) 2,695 - -47.9°
Reaches altitude 10° 01:55:00 10° 313° (NW) 1,805 - -47.6°
Maximum altitude 01:59:08 75° 228° (SW) 563 - -47.1°
Drops below altitude 10° 02:03:12 10° 142° (SE) 1,785 - -46.5°
Sets 02:05:25 0° 140° (SE) 2,663 - -46.2°
